GFSSGP_sfc_thetae_099.txt.gz
Theta_e
323 316 307 302 292 288 285 289 292 295 296 300 303 302 302 303 302 297 327 338 339 341 346 346 347 349 349 349 349 350 351 351 351 351 351 351 351 351 351 350 348 349 347 348 348 348 348 347 347
313 313 302 295 288 283 285 292 293 295 300 303 305 304 305 309 322 327 333 339 339 341 345 346 347 348 349 348 349 350 351 350 350 350 350 350 350 350 350 349 348 348 347 345 347 347 347 345 344
312 310 297 291 285 284 286 293 295 301 301 300 299 303 312 314 326 329 334 339 339 339 342 345 345 346 348 348 348 349 349 349 348 348 349 349 349 348 349 347 347 347 348 345 347 346 345 343 341
307 304 297 289 287 290 292 295 299 299 301 301 299 300 314 325 329 332 340 341 338 338 340 341 344 345 347 348 348 348 348 347 347 346 347 349 348 348 346 345 346 347 347 347 346 344 342 340 339
301 296 288 285 287 291 295 298 298 298 298 302 300 299 311 327 332 336 339 341 339 337 336 339 341 345 348 349 349 348 347 343 343 342 343 345 347 346 345 344 344 343 344 345 344 342 339 339 338
295 293 286 284 288 294 296 300 300 300 301 303 302 310 314 327 330 333 336 336 339 337 336 337 342 344 346 348 347 346 344 341 340 338 339 341 342 341 342 343 342 342 343 342 340 340 338 338 336
294 289 286 285 288 292 295 299 299 299 300 301 306 306 313 323 328 329 331 335 335 336 335 335 337 341 342 343 343 342 341 338 338 337 337 336 335 334 337 339 340 341 340 339 339 338 336 335 333
296 293 287 288 289 291 297 300 300 299 298 304 308 308 311 322 328 327 327 329 331 332 333 333 334 335 339 341 339 340 339 337 336 336 336 335 335 334 334 335 336 339 339 337 337 336 335 332 331
297 289 287 289 290 292 299 298 301 302 299 300 305 313 315 327 325 323 321 322 324 328 329 329 329 329 330 336 337 339 338 336 336 336 336 333 329 329 331 334 335 337 337 335 336 334 332 329 329
297 289 290 296 295 297 297 296 298 298 298 298 301 316 323 326 323 322 320 320 320 323 326 328 327 327 328 334 333 334 337 336 335 334 331 327 324 327 331 334 335 336 335 335 335 333 329 327 324
295 293 296 297 298 297 294 295 297 295 295 299 300 304 321 322 321 321 321 321 322 323 325 326 328 327 328 329 329 333 332 330 330 328 327 324 327 326 328 329 331 333 332 331 330 326 318 322 322
293 296 300 299 300 298 298 296 296 294 300 304 302 305 320 319 320 320 319 320 320 320 324 323 326 326 326 327 327 331 331 328 328 327 326 323 327 328 329 330 328 328 329 327 326 319 316 316 317
295 297 300 301 300 299 300 298 297 298 303 304 302 306 318 320 321 322 322 321 319 320 322 323 322 324 326 326 326 328 330 329 328 327 325 325 326 327 329 329 329 329 327 324 321 317 314 315 316
297 298 299 300 300 300 299 299 296 298 302 301 302 300 314 319 320 321 318 318 319 322 322 321 321 323 324 326 324 326 327 328 328 327 327 326 327 327 328 326 328 326 325 322 319 315 313 313 315
299 295 296 296 298 298 300 295 295 300 301 300 300 301 302 316 319 320 320 319 321 323 322 321 320 321 322 322 322 323 325 327 326 327 327 327 327 326 327 325 323 324 322 319 317 314 312 311 315
295 294 289 296 298 299 298 292 299 302 300 299 299 300 301 301 312 319 320 319 321 322 321 321 322 320 319 319 320 321 326 327 327 328 327 328 328 326 323 325 322 319 318 316 315 312 312 313 314
290 285 289 292 299 297 294 292 297 299 299 299 299 299 300 302 303 303 317 317 321 321 321 319 320 319 318 317 318 318 324 327 328 328 326 328 328 325 322 321 319 317 316 315 314 312 312 313 314
285 286 285 288 292 295 293 293 295 297 297 297 299 300 299 300 303 303 307 317 321 321 320 320 320 319 318 319 319 319 324 326 327 328 327 328 328 324 321 319 317 316 314 314 313 311 311 314 314
290 288 287 287 293 291 290 291 292 294 296 296 297 298 299 300 302 307 315 319 319 319 319 318 317 320 320 318 318 318 319 319 322 326 327 327 328 324 321 318 316 313 313 314 312 312 311 310 315
288 286 285 288 292 291 290 290 292 293 296 297 298 298 300 300 306 313 316 317 317 318 317 316 317 320 319 319 318 315 317 317 319 321 323 327 327 324 322 319 315 311 313 314 312 312 309 309 314
285 284 283 285 287 287 287 287 290 294 296 299 300 300 302 301 303 312 315 316 316 317 316 316 318 318 318 316 314 314 314 314 314 315 319 321 327 324 322 319 316 311 315 314 312 313 312 310 309
282 288 287 285 282 278 287 279 286 291 294 297 299 300 301 301 304 312 315 315 316 316 316 317 317 316 317 316 314 313 312 311 312 313 315 317 322 324 323 321 317 313 317 314 313 314 313 313 309
285 290 287 286 282 281 283 283 285 292 291 294 297 299 301 302 301 311 314 316 316 316 315 317 317 316 316 316 312 311 312 313 312 312 313 316 318 323 323 320 316 314 317 315 314 312 311 313 310
293 288 288 286 283 278 283 284 284 287 291 295 298 301 305 302 300 311 316 316 315 315 315 316 316 316 316 315 311 311 312 311 310 311 311 313 314 318 320 319 316 317 316 315 313 312 311 311 311
288 284 279 278 279 278 288 285 287 292 297 297 300 303 306 305 301 308 313 313 314 313 314 315 315 315 315 313 311 311 311 312 311 311 312 312 313 313 315 318 316 315 315 316 315 313 312 312 310
285 285 279 276 276 280 287 282 286 296 300 303 304 305 306 306 306 309 314 314 314 313 314 315 315 314 314 313 311 312 311 312 312 312 313 313 313 314 315 315 316 315 315 316 315 314 314 313 312
285 284 289 283 282 280 283 287 291 296 299 301 302 303 302 304 308 309 314 314 314 314 313 314 314 314 314 313 310 309 310 311 311 311 312 312 314 314 314 316 316 316 316 315 314 314 313 315 314
288 290 282 283 277 276 280 281 283 293 297 299 300 300 303 305 307 312 315 314 314 314 314 315 315 314 314 313 310 309 310 311 311 313 312 311 312 313 313 313 315 315 315 315 314 313 314 314 315
285 285 287 286 283 279 277 279 294 295 297 299 301 302 304 305 306 314 315 315 314 314 314 314 315 315 314 314 311 310 310 310 311 311 311 310 311 312 312 312 314 313 313 313 313 313 313 314 314
287 286 287 281 280 282 281 282 298 295 301 302 302 303 304 307 306 307 316 315 314 314 314 314 315 314 315 315 313 310 311 311 310 310 311 312 310 311 313 313 312 313 313 313 313 312 313 313 313

GFSSGP_sfc_thetae_102.txt.gz
Theta_e
323 314 304 300 292 288 284 288 290 293 295 298 302 301 301 301 302 294 324 337 338 340 345 345 347 349 349 349 349 350 352 353 353 352 352 352 352 351 351 350 350 351 352 350 349 351 349 348 347
315 309 300 294 287 281 284 290 292 295 299 301 303 304 305 303 320 324 331 337 340 341 344 344 347 348 349 349 349 350 351 352 352 351 352 352 351 351 351 350 347 348 351 350 348 349 348 347 344
312 307 296 290 284 282 284 292 294 298 300 300 297 302 308 310 324 326 334 338 340 341 343 344 345 346 348 348 349 350 349 349 350 350 351 352 351 350 350 348 347 347 348 349 347 347 346 344 343
306 303 295 288 285 288 289 293 296 298 300 299 299 298 311 323 326 330 337 338 338 338 341 343 343 345 347 348 349 349 349 347 348 348 350 350 350 350 349 347 345 345 346 347 346 345 344 341 340
299 295 288 284 285 289 294 296 296 297 297 299 299 297 308 325 330 335 337 337 335 335 336 340 341 344 347 348 348 348 347 346 346 347 348 349 349 347 345 344 344 344 344 346 345 343 342 340 338
295 293 285 283 286 291 294 298 298 298 299 300 300 304 309 324 330 334 337 335 336 334 334 337 343 344 345 347 346 345 344 344 344 345 346 347 347 345 344 344 344 343 343 343 342 340 340 338 337
293 289 285 284 287 289 293 297 297 298 298 297 305 304 310 322 327 331 332 334 334 333 332 333 337 343 343 342 343 342 341 341 340 341 342 341 341 342 344 343 342 341 340 342 341 339 338 336 334
294 292 285 287 288 289 296 297 299 297 296 302 307 302 303 319 327 328 330 330 332 331 331 331 333 335 338 341 340 340 339 338 338 337 337 335 335 336 337 338 339 340 341 340 338 337 336 334 332
295 288 285 288 289 291 296 295 299 300 297 298 302 307 313 325 326 324 323 328 331 333 332 330 331 332 333 336 341 340 339 337 337 337 336 333 332 332 333 334 336 337 336 337 336 335 332 331 330
294 288 288 294 294 295 296 294 294 296 295 297 299 311 322 324 323 323 322 326 329 331 332 329 328 328 328 333 338 338 339 336 335 335 334 332 330 330 332 332 334 336 334 334 335 332 331 328 325
295 291 293 296 296 295 292 294 297 294 294 298 299 300 319 320 320 321 322 323 326 329 329 328 325 325 325 333 334 335 335 336 334 333 332 328 328 329 330 328 330 331 333 331 332 328 325 324 322
292 295 298 297 298 296 296 294 295 294 298 303 301 302 318 319 320 321 321 321 319 321 325 326 324 324 324 331 331 332 330 331 330 330 328 327 326 326 329 329 330 329 329 329 328 322 322 321 320
293 295 297 299 298 297 298 297 296 295 300 303 302 301 310 318 321 323 323 321 319 319 321 323 324 325 324 326 327 329 328 328 327 328 326 326 326 325 327 328 327 328 329 327 320 318 320 318 317
294 294 296 298 299 298 298 299 296 297 301 300 300 299 300 316 319 320 318 318 318 321 320 322 323 325 327 327 327 328 330 328 327 326 326 325 324 327 327 328 327 327 326 325 318 317 317 317 317
296 292 294 294 296 296 297 293 294 299 300 299 299 299 299 309 315 317 320 320 320 321 322 322 322 323 327 328 325 327 327 328 328 327 326 325 324 325 328 326 326 326 325 322 317 316 317 316 316
292 292 287 294 296 297 298 291 296 300 298 297 298 298 299 299 308 315 319 320 321 320 321 323 324 322 324 327 324 324 325 327 327 327 326 326 327 327 327 325 325 326 323 320 316 315 315 314 314
287 283 286 290 296 296 295 291 295 298 298 297 297 298 299 299 300 304 313 317 320 320 321 320 322 321 321 319 323 324 325 325 326 327 326 327 327 325 324 326 323 324 320 318 316 314 315 313 312
284 285 285 286 290 293 292 292 294 296 294 295 295 297 298 298 300 302 301 304 318 320 321 320 321 320 318 318 320 321 323 325 326 326 325 327 327 324 323 321 319 320 319 316 316 313 315 314 313
288 286 286 286 292 290 290 290 290 293 293 292 294 296 297 298 301 303 307 303 315 317 318 319 320 318 319 320 320 320 321 321 323 325 327 327 327 324 321 319 316 317 316 314 314 313 313 313 314
288 286 285 287 291 290 289 290 290 290 291 293 295 295 297 298 300 303 312 312 315 317 318 320 319 319 320 320 321 319 319 319 321 324 326 327 327 324 321 318 316 316 315 313 313 313 312 313 314
285 285 283 285 285 284 283 284 286 290 292 296 297 298 298 298 299 300 311 312 313 316 318 319 318 319 320 320 318 315 315 315 316 317 321 324 326 324 322 319 316 315 315 313 312 313 313 311 313
282 286 286 284 281 276 284 276 282 288 290 293 296 297 296 298 304 300 306 311 314 316 319 318 318 319 319 318 315 313 311 311 313 316 317 319 324 324 323 319 316 314 314 313 312 314 314 314 310
283 287 285 284 280 278 282 278 282 288 289 292 294 296 298 303 304 302 303 313 315 316 317 318 318 318 317 316 316 314 313 314 313 313 315 316 318 323 322 319 316 312 314 314 312 313 312 314 312
290 287 286 284 281 275 280 280 280 284 288 294 296 300 303 303 305 306 306 312 314 316 316 317 317 316 316 315 314 312 310 312 311 312 313 315 316 320 322 321 317 313 315 314 312 314 313 313 313
286 283 278 277 277 277 284 281 285 290 294 297 299 300 301 303 304 305 306 311 313 314 315 316 315 313 314 313 313 309 309 311 311 311 312 313 314 315 320 319 317 314 317 315 313 312 312 312 312
284 283 278 275 276 277 286 280 285 294 299 301 301 300 301 302 304 306 307 310 313 314 315 315 315 314 314 313 313 310 310 311 311 312 313 313 314 315 317 318 315 315 316 315 314 314 312 312 311
284 281 287 281 281 279 281 285 290 296 297 299 299 300 300 301 304 305 308 311 314 314 314 315 315 315 314 313 312 310 310 311 311 311 312 313 315 315 315 317 315 316 315 315 314 312 313 312 312
286 288 281 281 276 275 278 280 282 289 293 298 298 298 301 303 303 305 308 312 315 315 315 316 315 314 314 313 311 309 309 309 309 310 310 313 314 315 315 315 315 315 315 314 314 314 314 312 312
283 282 285 284 281 277 276 279 289 292 294 297 298 300 301 302 303 305 309 314 315 315 314 314 314 314 314 313 311 309 308 309 309 310 310 311 313 313 314 315 314 314 314 315 314 313 313 312 312
286 285 284 279 279 281 280 281 297 294 297 299 300 301 303 304 304 306 309 313 314 314 313 313 314 314 315 313 311 308 309 309 309 309 310 311 310 313 314 314 315 315 314 314 314 313 313 312 312

GFSSGP_sfc_thetae_105.txt.gz
Theta_e
327 315 311 309 300 299 294 295 297 298 300 304 306 307 309 312 312 305 332 343 345 346 348 349 346 348 349 350 350 352 354 354 353 353 352 352 352 352 351 352 351 351 353 351 351 352 351 350 348
318 309 308 303 296 291 293 297 298 302 304 305 307 310 310 308 322 326 333 343 345 346 348 349 346 348 349 349 350 352 354 354 353 353 352 352 352 351 352 351 350 351 352 352 350 350 349 348 346
315 310 305 301 295 291 293 297 302 303 305 305 305 308 311 313 327 329 340 344 345 345 346 348 346 346 348 349 349 350 351 351 352 351 352 353 352 351 350 349 347 349 350 351 350 349 348 345 344
313 311 303 297 293 295 296 300 301 302 305 305 305 305 315 326 329 333 342 344 344 344 345 344 343 346 348 349 349 349 350 349 349 350 351 352 352 351 348 347 347 348 348 349 350 347 345 343 341
307 305 297 294 294 296 300 301 302 302 303 304 305 304 313 330 335 337 342 343 343 344 344 345 342 345 347 349 349 349 348 347 348 349 350 350 350 350 347 345 344 345 345 346 347 346 343 341 340
303 302 294 291 293 296 300 302 302 302 304 304 303 305 313 330 335 339 342 343 345 344 346 348 344 344 345 346 347 346 345 345 346 347 348 349 349 347 345 344 343 342 344 344 344 343 341 339 338
302 299 293 292 293 294 298 303 301 303 302 303 307 304 315 325 335 341 341 342 342 343 344 347 348 347 343 342 342 342 343 343 344 345 343 345 344 341 343 342 342 343 343 342 342 341 338 338 336
302 301 293 294 293 294 301 302 304 304 303 306 314 307 309 322 334 339 341 341 341 341 342 343 347 347 348 349 340 340 340 340 340 342 341 338 339 340 340 340 341 342 341 340 340 339 337 336 334
301 296 292 294 294 296 301 301 304 305 303 305 307 310 318 328 333 336 337 335 336 337 341 342 344 347 346 348 347 341 341 339 338 339 338 336 344 343 342 340 336 339 339 340 339 337 334 332 331
300 294 294 298 299 298 300 300 301 302 302 303 304 312 326 329 332 333 332 332 333 335 336 340 342 343 346 345 348 344 345 343 340 341 343 343 341 341 340 338 335 337 336 336 336 334 332 331 330
300 295 297 299 300 301 300 300 303 302 301 304 304 306 320 326 329 332 332 333 334 336 336 335 337 342 342 342 344 343 342 340 339 341 338 337 334 336 337 337 337 338 336 339 333 333 332 330 330
296 299 300 300 302 302 300 303 301 303 304 308 307 308 314 322 326 329 331 331 332 334 335 334 336 339 340 340 341 341 339 337 338 337 339 338 334 332 333 332 333 334 338 337 331 333 329 327 328
297 299 300 302 302 302 302 301 301 301 305 308 307 307 307 314 321 327 331 331 331 331 335 334 336 337 337 334 336 338 336 334 334 336 335 338 335 330 335 332 332 335 336 336 329 327 325 324 326
296 297 299 301 301 301 300 301 301 302 307 306 306 307 308 307 315 323 327 328 328 329 331 334 336 337 335 333 331 333 333 332 332 333 334 335 337 335 330 331 332 332 331 332 325 322 322 322 325
297 294 296 297 298 299 301 297 298 305 306 305 306 307 307 307 310 318 324 327 329 329 330 329 333 336 334 333 330 331 333 333 331 330 330 333 334 331 329 331 331 330 326 326 322 321 320 320 323
296 296 291 297 299 300 300 294 301 304 303 303 304 305 305 306 308 314 320 324 327 328 328 329 329 333 333 331 329 330 332 332 332 331 331 331 331 330 331 330 327 327 322 319 320 318 317 318 321
292 289 290 293 299 300 298 295 300 303 302 302 302 303 304 305 308 310 312 317 322 325 327 328 329 330 331 330 329 328 329 329 331 332 330 331 329 330 331 330 327 325 322 317 318 317 317 318 318
286 287 290 292 297 297 297 296 299 302 300 300 302 303 303 304 306 310 311 312 313 316 325 327 329 330 330 328 326 327 327 327 329 329 329 330 328 327 329 328 324 324 321 318 318 317 317 317 317
291 289 290 293 296 295 296 296 297 299 300 300 301 301 302 303 308 309 311 314 316 317 323 326 327 328 327 323 322 323 324 325 326 328 328 327 328 328 327 325 322 324 320 316 316 317 315 317 321
290 289 289 292 295 294 294 293 296 296 297 298 299 299 301 304 306 309 311 315 319 319 323 325 326 325 328 326 326 327 326 325 325 327 327 327 328 327 324 321 319 320 319 317 315 316 315 315 317
289 288 288 288 291 291 289 288 290 294 295 296 298 301 303 304 306 311 311 311 317 320 322 323 325 323 328 328 326 325 322 322 321 322 325 326 328 325 324 320 318 316 316 315 316 316 316 313 315
284 290 290 289 287 283 289 281 288 293 294 297 299 301 302 308 310 310 311 312 313 318 323 323 323 322 325 325 322 322 320 318 319 320 323 326 328 324 323 320 319 318 317 315 316 317 316 315 313
286 290 289 289 286 284 285 284 288 291 292 295 299 303 307 308 309 309 310 312 315 318 321 322 321 321 323 323 323 321 318 319 319 320 319 323 325 325 322 320 318 317 317 316 316 316 316 317 317
291 288 288 287 285 280 284 285 286 290 293 297 302 305 306 307 308 309 312 313 314 320 322 321 319 319 321 322 320 317 317 319 318 316 316 319 319 321 323 319 318 316 316 315 316 317 317 317 318
291 288 281 280 279 280 286 283 288 294 297 301 302 304 305 306 307 309 310 311 312 316 320 320 318 317 319 319 317 316 318 318 317 316 315 317 317 319 321 319 317 316 315 315 314 315 318 320 318
287 288 283 276 278 281 286 282 289 297 302 303 303 304 305 306 307 308 309 310 312 317 319 318 317 316 318 317 315 315 319 319 319 318 317 317 319 319 323 321 318 316 315 315 314 314 315 315 317
286 283 290 284 285 281 285 289 293 300 300 301 301 302 304 306 307 308 310 311 312 315 319 318 316 316 316 316 316 316 318 319 319 318 316 316 319 319 322 321 318 315 315 315 313 313 314 314 315
289 291 284 285 277 276 282 284 286 293 295 300 300 302 303 305 306 308 310 311 313 315 319 318 317 316 316 315 318 316 317 319 319 318 314 316 319 319 320 318 316 315 316 314 314 313 314 314 313
286 285 287 287 285 279 278 283 292 295 298 299 301 303 303 305 306 308 310 311 312 314 319 317 317 316 315 316 317 314 315 317 318 317 317 317 319 318 317 317 315 315 315 314 312 311 312 312 312
290 287 287 282 281 284 283 283 298 298 300 301 302 304 305 306 307 307 307 307 312 314 317 316 316 316 315 316 315 312 314 316 316 316 317 319 317 317 317 316 315 315 315 314 312 310 311 312 311

GFSSGP_sfc_thetae_108.txt.gz
Theta_e
325 326 320 315 304 303 300 300 305 305 305 310 311 313 313 314 312 308 336 344 345 347 351 349 345 349 350 351 352 353 353 354 354 354 353 353 353 353 353 352 352 352 353 352 351 352 352 351 349
326 318 315 312 300 297 300 304 303 307 309 310 311 311 311 311 320 327 335 345 346 348 352 352 345 348 350 351 352 353 354 354 353 353 353 353 353 352 353 352 351 351 353 353 351 351 351 349 347
321 316 309 305 301 298 300 303 306 308 310 309 310 314 313 313 324 329 337 346 346 346 351 352 345 347 349 350 351 352 353 352 352 352 353 353 353 353 352 351 350 351 352 351 351 350 349 347 344
315 312 310 300 299 303 302 305 309 307 309 311 311 309 316 327 327 332 342 344 345 346 349 346 343 346 348 349 351 351 351 351 351 351 352 353 353 353 351 348 349 349 349 351 351 349 346 344 342
316 311 301 299 300 304 306 307 309 307 307 309 310 309 312 328 335 336 342 344 343 346 349 352 343 345 348 349 350 350 350 349 349 350 351 351 352 350 348 347 347 347 349 349 348 347 344 342 341
307 308 298 297 300 303 305 308 307 307 307 308 308 310 312 332 335 337 344 346 347 348 351 352 346 345 346 348 348 347 347 347 348 349 349 350 349 347 346 345 346 345 346 346 346 344 341 341 340
305 303 299 300 300 302 303 308 306 306 306 307 311 308 315 325 337 342 344 348 351 350 350 353 352 349 343 343 344 343 344 345 345 346 346 347 345 344 344 344 344 342 343 342 343 342 339 340 338
308 305 300 301 299 300 306 306 308 307 307 312 314 309 312 323 339 342 343 346 349 348 349 351 352 351 349 351 341 341 341 341 343 344 344 341 340 342 342 342 341 341 343 342 342 338 338 337 336
310 300 298 301 300 303 305 304 308 310 309 309 311 312 318 329 337 340 340 342 344 344 345 348 349 349 348 348 347 341 341 341 340 343 340 337 349 347 346 341 339 340 340 340 339 337 336 333 332
304 300 301 306 306 303 304 305 307 306 307 308 309 314 321 327 331 334 335 336 339 341 343 345 347 348 348 347 350 350 349 347 349 348 347 348 347 346 342 340 337 338 336 338 338 336 333 333 333
304 299 305 306 306 307 305 305 308 305 304 308 308 310 313 320 324 328 332 335 335 338 341 343 347 349 347 347 346 347 347 349 349 349 349 348 346 346 345 344 340 341 337 337 339 335 335 333 331
300 304 305 306 306 305 303 307 305 306 307 311 312 313 314 314 320 323 326 331 334 336 340 343 345 347 347 345 345 346 343 346 345 347 346 345 343 342 342 342 340 339 339 339 339 333 335 333 330
302 303 305 306 305 305 306 304 304 306 310 312 312 312 313 314 317 321 324 327 332 336 340 342 342 346 346 345 344 343 345 344 343 343 345 344 340 340 341 338 337 338 338 340 333 336 331 329 330
303 303 304 305 305 305 303 304 305 307 310 310 311 312 313 314 316 318 322 325 329 334 338 342 342 345 346 345 341 342 343 343 343 343 341 342 343 338 341 339 335 337 338 339 334 335 332 328 328
301 298 300 301 302 301 304 300 301 306 308 308 309 310 312 314 316 316 320 325 329 331 335 339 343 345 345 343 341 341 340 340 341 339 338 340 340 340 340 339 336 338 336 335 334 330 331 328 326
297 298 294 301 303 302 302 297 305 309 309 308 310 312 312 314 315 316 319 322 325 328 330 335 337 341 344 342 340 337 337 338 335 335 335 337 337 339 337 336 336 334 335 331 327 324 322 322 323
297 292 295 298 303 302 301 299 306 309 308 307 309 310 311 312 313 316 317 318 321 324 327 331 337 337 341 342 339 336 336 335 338 337 334 333 336 337 335 336 332 331 328 325 324 322 321 320 321
291 293 295 295 300 301 300 300 305 307 307 307 308 310 311 311 313 316 317 318 319 320 322 326 331 336 338 341 338 333 334 334 336 337 336 337 336 334 335 334 331 326 321 319 319 320 320 319 319
295 293 291 295 299 299 299 300 303 307 307 306 308 309 310 311 313 313 315 320 321 323 323 323 327 333 334 333 330 328 327 330 331 334 335 336 334 336 332 331 329 324 319 319 320 319 317 317 320
290 288 290 293 297 297 297 297 302 303 304 305 305 306 307 308 308 312 317 320 322 324 325 326 328 332 334 331 330 331 329 329 331 332 335 333 334 333 329 328 327 323 320 320 321 319 317 317 320
291 289 288 288 293 296 295 293 296 300 301 302 303 304 305 306 309 313 316 319 322 323 325 326 328 331 333 334 329 330 330 329 328 329 330 331 332 331 329 328 326 324 321 317 318 318 317 314 318
287 293 291 290 289 286 294 286 293 296 298 301 303 305 307 310 313 315 316 318 321 323 325 327 328 330 332 333 328 328 327 324 328 327 328 329 330 329 329 329 327 323 321 318 317 318 317 317 315
289 293 290 290 289 288 289 286 291 296 295 299 303 306 311 313 314 314 316 318 320 322 326 327 328 329 329 330 328 329 330 330 331 330 328 326 328 329 329 324 321 319 319 318 318 318 317 317 316
293 290 290 290 288 282 288 287 289 294 297 300 305 309 310 312 313 314 316 318 319 322 325 328 327 327 327 326 328 330 331 330 327 324 323 322 324 327 325 323 321 320 319 318 318 318 317 317 317
291 289 284 282 282 282 291 288 291 296 300 302 305 307 309 311 311 313 314 316 317 319 322 325 326 324 324 324 325 329 331 329 328 327 324 320 322 324 325 320 320 318 318 321 319 319 318 318 317
289 289 284 277 281 284 290 284 290 298 304 306 306 307 308 310 311 312 313 315 317 318 320 323 324 322 321 321 322 326 328 329 327 326 323 322 322 326 323 321 322 319 319 319 319 318 318 319 318
290 287 293 287 288 285 288 291 297 302 303 304 305 305 307 309 311 312 314 316 317 317 320 322 322 321 321 320 320 321 325 328 326 326 325 323 324 324 325 320 319 318 317 317 316 316 316 318 318
292 294 285 288 279 278 284 287 289 296 299 302 303 304 306 309 311 312 313 314 315 315 318 322 324 319 321 319 318 318 325 327 327 325 320 322 322 324 323 323 320 317 316 316 315 314 315 315 317
287 288 289 289 288 281 281 286 297 297 300 300 302 305 307 310 311 311 312 312 311 314 312 322 320 318 319 318 317 320 324 325 325 323 320 320 323 323 323 324 320 317 316 315 314 313 314 314 315
291 288 290 284 283 286 286 286 300 301 302 303 304 307 310 311 311 310 310 308 307 305 302 317 318 318 319 318 318 320 321 324 321 321 319 320 321 322 322 320 318 315 315 315 313 312 313 313 313

GFSSGP_sfc_thetae_111.txt.gz
Theta_e
325 325 325 317 304 304 301 305 308 306 308 313 314 315 314 315 313 311 335 342 340 345 349 349 347 350 351 351 352 354 354 354 354 354 354 353 354 354 354 353 353 354 354 353 352 351 351 350 349
323 321 320 311 301 299 302 308 305 308 312 313 313 314 313 313 320 328 334 340 340 345 350 350 346 349 351 352 353 353 354 354 354 353 354 354 353 354 353 352 351 352 354 353 351 352 350 350 348
329 322 310 305 302 299 302 307 307 310 312 312 312 315 315 314 322 326 337 338 341 344 349 351 345 347 350 351 352 353 353 353 353 353 354 354 354 354 353 350 350 352 353 354 352 351 350 348 345
320 315 311 302 301 306 306 308 309 310 311 314 314 311 317 327 325 330 339 339 339 343 346 344 344 346 349 351 352 353 352 351 351 351 353 353 353 353 352 349 350 352 353 353 352 350 347 344 343
318 311 302 301 301 306 309 309 310 309 310 311 313 311 314 325 330 334 338 340 339 343 349 351 343 346 349 350 351 352 351 350 351 351 351 352 352 352 350 349 349 349 349 349 348 347 344 343 342
309 310 301 299 302 307 310 310 309 310 311 311 311 311 314 328 329 335 341 341 343 345 351 354 346 346 347 348 349 349 348 349 349 350 350 351 351 349 348 348 348 347 347 347 346 345 343 342 341
307 306 301 302 303 305 308 311 308 309 310 310 314 310 316 324 331 337 341 343 346 348 351 355 352 348 344 345 345 345 345 346 347 348 346 346 346 344 346 346 344 345 345 345 345 343 340 340 340
309 307 303 304 302 304 310 309 310 309 309 315 315 309 312 325 337 340 340 343 345 347 349 352 353 351 350 350 342 342 342 343 344 345 344 342 341 343 343 342 343 344 342 344 343 340 339 339 337
313 302 300 303 304 306 311 306 311 312 309 311 314 315 320 326 334 337 337 339 343 344 345 349 349 350 351 351 347 342 342 341 342 344 343 341 348 347 346 342 340 340 340 341 341 339 337 335 333
307 303 302 309 310 308 310 308 309 308 308 309 311 316 320 324 328 332 333 334 338 340 341 344 347 348 349 346 350 348 348 348 347 348 349 350 348 347 344 342 339 339 339 338 337 336 334 334 338
307 302 308 309 311 311 310 309 310 308 307 309 310 313 316 319 323 327 330 331 335 339 339 340 346 349 347 345 346 346 347 347 347 348 348 349 347 349 346 347 346 344 338 338 338 337 338 337 336
304 307 308 308 310 310 307 310 309 309 309 313 313 315 315 315 318 321 325 328 330 335 338 340 343 347 349 344 343 344 347 347 347 348 352 349 348 346 345 342 343 343 340 338 339 340 339 337 335
304 306 308 309 309 309 309 307 307 308 312 313 314 314 314 315 316 320 323 325 327 330 336 340 343 346 348 348 344 345 348 345 348 346 348 348 345 344 343 343 342 340 338 338 339 338 337 335 333
307 307 307 308 308 308 306 306 307 309 312 311 312 313 314 314 315 317 320 322 325 327 332 341 343 347 347 346 347 346 347 347 345 345 346 348 346 345 346 344 342 342 341 341 340 338 335 333 333
304 301 303 305 306 306 308 303 304 310 311 310 310 313 314 315 316 316 319 321 324 326 329 339 344 348 346 346 345 345 344 344 345 344 346 346 346 345 343 342 341 342 340 340 339 337 337 334 331
300 300 295 302 304 305 303 298 306 312 311 309 310 311 313 314 315 317 319 320 323 326 328 332 339 344 346 347 345 344 342 342 342 343 343 343 344 344 341 339 339 341 341 339 336 334 331 329 327
299 293 296 299 305 304 302 299 305 310 310 309 311 313 314 315 317 319 320 320 322 324 326 329 338 340 344 347 345 346 344 341 341 341 338 341 339 340 339 339 340 341 337 335 333 327 328 324 324
293 294 297 298 303 304 302 300 305 308 309 309 311 312 313 314 315 318 319 321 321 322 324 327 330 338 341 343 346 343 340 339 340 339 339 340 340 339 338 337 339 338 332 329 327 324 323 322 322
297 295 295 299 303 302 301 301 303 306 308 309 310 311 312 313 316 318 320 319 320 323 323 323 324 331 338 336 338 340 333 334 335 339 339 339 337 336 335 334 334 333 328 325 324 322 321 320 322
296 294 294 299 300 299 299 299 303 305 307 309 309 310 311 313 314 316 316 318 321 323 324 326 326 327 330 334 336 338 332 332 334 336 339 338 337 335 334 334 330 326 324 323 322 319 317 318 321
294 293 293 293 296 296 296 295 298 302 304 306 309 309 310 310 310 312 313 319 322 323 325 325 327 328 330 334 337 334 333 331 330 331 334 336 336 334 335 334 331 325 323 320 320 319 318 315 319
290 296 294 292 290 285 295 287 295 299 299 303 305 306 307 308 309 312 316 318 321 323 325 328 328 328 330 335 334 330 328 326 328 331 333 333 336 334 333 332 329 325 322 320 320 322 319 317 315
292 296 293 293 290 290 291 289 294 299 297 300 303 305 308 310 314 314 316 317 318 321 324 328 329 329 330 332 334 331 328 331 333 333 332 330 333 331 333 331 327 325 322 321 319 319 317 317 315
296 292 292 292 290 284 290 289 290 292 297 300 303 306 310 312 313 314 316 317 318 320 323 326 327 328 330 331 333 331 328 332 331 332 331 328 331 332 330 329 328 327 325 321 319 320 318 317 316
294 290 281 279 281 282 291 288 291 297 299 302 304 307 310 312 311 312 313 314 316 318 321 322 323 326 329 330 329 330 330 332 333 333 331 328 327 328 328 325 326 325 324 323 320 319 318 317 317
291 290 284 278 279 282 291 286 292 299 302 306 307 308 309 310 312 312 313 315 317 318 320 321 322 323 327 328 325 329 329 330 331 331 330 328 327 328 326 324 323 322 322 323 320 318 318 318 317
291 288 294 287 290 286 289 292 298 300 302 305 305 305 307 308 310 312 314 316 316 316 317 319 319 321 325 327 325 327 328 328 329 333 332 328 327 326 327 326 324 323 321 322 320 318 317 317 317
294 295 287 288 279 279 286 288 290 296 299 302 302 303 305 308 310 312 313 314 314 314 315 317 319 321 324 325 324 325 324 329 330 332 328 327 325 326 325 323 321 320 318 318 318 318 318 317 317
290 290 291 290 288 282 281 286 298 297 300 301 303 305 306 308 310 312 311 312 312 312 312 313 314 321 324 323 323 323 322 326 328 329 327 326 325 325 325 325 322 320 318 317 315 316 316 316 316
293 291 292 286 284 287 286 286 301 302 302 302 303 305 308 311 309 310 311 312 311 309 308 307 306 316 323 321 321 320 321 324 326 326 324 325 325 325 324 324 321 319 317 316 314 313 314 314 314

GFSSGP_sfc_thetae_114.txt.gz
Theta_e
326 322 321 318 302 302 298 301 308 306 307 313 314 312 312 315 314 311 335 340 346 344 346 347 349 351 352 352 353 354 355 354 354 354 353 353 354 354 354 353 353 353 356 354 353 352 351 351 349
318 317 317 311 298 295 298 306 305 308 311 313 313 313 313 312 323 328 332 338 345 346 347 347 347 350 352 352 353 354 355 354 354 354 354 354 354 354 353 352 352 353 354 353 352 352 351 350 348
319 321 310 304 299 296 298 306 308 310 313 312 311 314 314 313 323 328 336 339 344 344 347 347 346 348 351 352 353 353 353 353 353 353 354 354 354 353 353 351 350 352 354 354 352 351 350 347 346
321 319 310 299 297 302 303 307 309 309 311 313 312 310 316 327 323 333 336 337 341 343 348 342 345 347 350 351 353 353 352 351 351 352 353 354 354 353 352 350 349 352 354 352 353 349 346 345 343
320 311 300 298 299 303 308 310 310 308 310 310 312 309 314 324 328 334 335 337 341 347 348 345 343 346 349 352 353 353 352 351 351 351 352 352 353 352 350 349 349 349 349 350 349 347 345 343 342
309 309 298 296 300 304 308 310 310 309 311 311 310 310 315 325 327 334 338 341 346 352 351 346 345 346 347 349 350 350 349 349 349 350 350 351 351 348 349 348 348 348 347 347 346 344 343 342 341
308 304 299 299 300 303 307 313 308 308 309 309 313 308 316 323 330 336 339 344 348 352 353 348 347 346 345 345 346 346 346 347 347 348 347 348 345 345 345 347 346 345 345 343 343 342 341 341 340
310 306 300 301 300 301 309 311 311 309 307 314 314 307 311 323 332 335 338 340 345 348 352 349 348 347 346 346 343 343 343 344 345 346 345 345 343 344 343 343 344 343 344 342 343 340 339 339 337
313 302 299 300 301 304 310 309 310 312 309 310 313 313 322 328 335 334 336 337 341 344 347 350 349 347 347 346 345 342 343 343 343 345 344 340 347 345 345 342 341 342 341 340 342 338 337 336 335
306 302 300 306 307 307 309 310 310 308 307 308 310 316 321 324 329 330 329 333 338 340 342 346 347 347 348 346 346 345 345 345 345 347 346 345 347 345 343 341 340 340 338 339 338 338 335 334 334
304 300 305 307 309 310 309 309 312 307 305 309 309 312 316 319 322 329 329 331 336 339 339 341 346 348 347 343 346 345 345 345 344 345 345 346 345 344 342 341 339 339 337 336 336 334 334 335 334
300 306 307 307 309 309 308 310 308 309 308 313 313 315 315 315 319 322 326 328 331 336 337 338 344 347 347 345 344 345 343 344 343 344 344 345 344 343 341 340 339 338 337 334 334 334 332 334 334
302 304 307 309 309 309 310 307 307 308 312 314 314 314 315 315 316 319 322 325 328 331 336 337 341 345 347 347 343 344 345 344 344 344 345 345 343 341 341 340 339 338 337 335 333 333 333 333 332
303 304 306 308 308 309 306 307 308 309 312 311 312 311 312 313 314 315 317 320 324 326 333 338 339 344 346 345 346 342 347 344 345 344 344 346 344 342 340 339 337 337 337 336 334 334 332 333 331
304 300 304 305 307 306 308 303 303 309 311 309 310 311 312 313 314 314 316 319 323 324 327 338 340 345 345 346 345 345 343 345 343 343 344 344 344 343 340 339 337 337 336 334 334 332 332 331 331
298 299 294 302 304 305 305 298 306 310 309 308 309 310 312 313 314 315 317 318 320 322 324 337 340 344 344 345 345 342 343 344 344 342 342 342 343 342 339 338 337 337 334 333 332 330 329 329 327
296 292 294 297 303 303 302 298 305 309 309 308 309 310 311 312 314 316 317 318 318 319 325 328 340 344 344 344 345 344 342 342 340 342 341 341 341 341 339 337 337 337 333 331 331 330 328 327 326
290 291 294 295 300 302 300 299 303 306 306 306 309 311 311 311 312 316 317 318 318 319 324 329 337 341 345 343 343 344 342 340 340 339 339 339 337 340 337 335 335 336 334 331 330 328 329 326 325
294 294 294 298 302 300 300 300 302 306 306 306 309 310 311 313 316 318 319 320 324 322 322 324 328 338 340 340 340 339 338 337 336 337 338 336 336 337 335 334 333 333 330 327 327 325 323 322 324
293 292 294 299 302 299 299 299 303 305 306 306 308 309 310 312 314 316 318 320 320 321 325 326 326 326 332 337 337 339 339 337 335 335 337 337 337 336 333 333 330 330 327 325 324 322 319 320 323
291 291 293 294 296 296 297 295 296 303 306 307 309 311 311 311 312 314 316 319 322 323 325 324 325 326 328 327 334 336 335 332 330 331 331 336 336 335 334 331 330 328 326 323 323 322 319 316 319
289 295 295 295 292 286 296 284 293 298 300 303 304 306 309 311 311 311 314 317 320 323 326 325 327 327 327 331 329 333 329 327 329 330 330 333 334 333 333 332 328 326 325 322 322 322 320 319 316
291 296 295 294 291 289 290 286 291 296 296 299 303 305 307 308 308 310 315 317 319 322 325 325 327 328 328 329 330 333 330 330 329 328 328 329 331 332 331 331 328 325 323 322 321 320 319 319 318
296 294 294 293 290 282 287 287 288 293 297 299 302 304 307 310 312 313 316 317 319 321 323 324 324 323 328 329 330 332 329 328 327 328 326 328 330 330 331 330 328 325 323 321 321 320 319 318 319
294 290 282 280 280 280 290 287 290 297 300 301 302 303 310 312 312 311 312 313 316 318 320 320 320 319 323 329 328 331 331 329 328 329 329 327 327 327 328 329 326 325 323 321 321 320 319 318 316
291 289 283 276 278 281 289 285 290 299 301 303 305 309 310 310 312 312 313 315 315 316 316 316 315 316 320 320 327 328 331 329 328 330 330 327 326 327 329 328 326 324 324 322 320 320 318 318 317
290 287 293 287 289 285 287 290 297 299 300 303 305 307 306 308 310 311 313 314 313 313 313 313 313 314 317 318 321 326 327 328 327 331 329 328 327 327 327 327 324 323 322 321 320 318 317 317 317
293 295 286 287 279 279 285 287 288 294 298 302 303 304 306 308 310 311 311 311 312 313 312 312 311 311 314 315 319 325 324 326 328 329 327 327 327 325 325 324 322 321 321 320 319 318 318 316 317
291 289 290 290 288 281 280 284 297 297 300 299 302 305 307 309 310 310 311 311 311 312 310 309 307 306 307 309 316 324 323 325 327 327 326 326 326 325 325 323 322 321 319 319 318 317 317 316 316
294 291 291 285 283 286 286 285 300 301 302 303 305 308 308 308 307 308 308 307 307 308 307 305 304 303 303 305 319 322 323 324 325 325 325 324 323 324 324 322 320 319 317 317 317 316 316 315 315

GFSSGP_sfc_thetae_117.txt.gz
Theta_e
320 318 313 309 296 290 286 292 300 300 300 305 308 307 307 310 314 308 337 341 342 343 347 348 348 351 351 352 352 353 354 354 354 354 353 353 353 353 353 353 353 355 356 355 353 352 351 350 349
315 315 308 302 290 284 287 298 297 301 306 308 309 309 310 312 323 329 332 340 342 343 345 346 347 349 350 351 352 353 354 354 354 354 353 353 353 353 353 352 351 353 354 355 353 352 351 349 347
313 314 302 296 289 286 288 296 298 305 308 307 304 308 310 315 327 327 337 342 341 342 344 346 346 347 350 351 352 352 353 352 353 353 354 354 353 353 353 350 350 353 354 354 352 352 350 347 345
308 310 307 291 288 293 296 300 303 304 306 307 305 305 313 323 326 330 340 340 339 342 344 343 344 346 349 351 352 352 351 349 351 351 353 354 354 353 352 349 350 353 353 354 353 351 348 344 343
307 305 292 287 290 296 300 303 303 302 304 307 306 303 311 324 330 333 337 339 338 341 341 342 343 346 349 352 352 351 349 348 350 351 352 352 353 352 350 348 349 349 349 352 349 348 345 343 342
302 300 288 288 292 298 301 304 305 304 307 308 306 306 311 326 327 330 334 339 344 340 340 342 345 345 347 350 350 349 348 348 349 349 349 351 350 349 348 347 347 348 347 346 346 344 343 342 341
301 296 290 291 294 297 301 305 304 305 305 304 310 303 312 320 327 332 336 345 344 343 340 341 342 344 345 345 345 345 346 346 347 347 347 347 346 345 347 346 346 344 343 344 343 342 341 341 340
303 298 295 296 294 295 303 305 306 302 300 308 309 302 302 317 329 334 337 344 345 343 341 339 339 340 339 341 343 343 343 344 344 345 345 345 343 343 343 344 344 344 341 342 342 340 340 340 338
304 297 294 295 296 299 305 304 307 307 303 304 308 307 321 328 329 330 333 334 339 344 341 340 340 339 338 338 342 342 343 343 342 344 343 341 342 342 342 341 341 343 341 341 340 339 338 336 335
298 295 296 300 302 302 305 305 305 300 301 303 307 318 320 326 327 326 329 330 333 336 340 342 340 340 340 343 339 338 341 342 342 342 340 341 341 340 342 340 339 340 339 339 339 337 335 334 331
298 295 301 303 305 305 303 304 307 300 298 303 304 312 316 317 323 324 326 332 333 336 340 342 341 341 341 341 339 339 339 339 340 340 340 338 341 339 339 337 336 335 337 335 336 333 332 331 329
294 299 301 302 304 304 303 304 303 300 303 307 307 311 314 315 315 323 322 329 333 335 336 340 341 341 341 338 339 339 339 338 338 338 339 339 337 336 335 335 334 334 331 331 331 330 330 330 330
294 297 300 303 304 304 306 303 303 304 307 309 309 309 308 311 313 315 321 323 334 333 334 337 340 341 341 337 341 339 339 340 339 338 339 339 337 335 335 334 334 334 333 331 330 330 329 329 329
298 298 299 301 302 303 303 303 301 305 307 308 308 304 304 309 310 310 309 310 316 334 333 334 338 341 341 339 337 337 339 339 339 338 339 338 338 336 335 333 333 333 333 330 331 330 329 329 328
299 295 298 300 300 300 303 299 300 304 306 305 305 305 305 306 308 308 309 310 311 318 333 331 337 340 340 338 338 336 340 340 338 339 339 340 339 337 335 334 332 333 332 330 330 328 328 327 330
289 291 288 296 300 301 300 294 303 305 304 303 303 303 305 306 307 307 309 309 311 312 325 332 338 339 341 339 338 338 339 339 338 338 337 340 340 338 335 334 331 331 330 329 329 328 326 326 326
286 283 286 291 298 299 298 295 302 304 305 304 305 305 305 306 307 308 309 309 311 313 315 332 336 338 339 338 339 336 335 338 339 337 337 335 337 337 335 334 332 331 329 327 328 324 326 326 326
282 283 285 288 294 297 296 296 298 301 302 303 304 305 306 307 308 310 309 310 313 311 314 329 336 339 339 340 337 336 334 334 335 338 337 336 336 337 334 333 332 332 328 325 326 326 322 326 325
286 286 286 290 296 295 295 296 298 299 301 300 301 302 303 306 309 311 310 310 308 311 314 324 336 337 338 335 333 331 334 333 330 333 335 336 336 337 335 333 331 332 329 327 327 327 325 322 323
285 284 286 292 296 296 295 295 298 299 299 302 301 300 302 304 307 310 310 309 310 313 315 316 327 337 338 337 336 334 332 332 334 330 332 334 332 334 336 334 330 329 327 327 326 324 321 321 324
284 283 285 287 292 296 293 291 294 299 299 301 303 303 304 305 305 308 311 309 310 313 314 315 317 320 329 335 332 329 328 326 326 326 328 331 332 332 333 332 330 328 325 324 324 323 322 318 322
281 287 287 288 287 286 294 281 291 297 296 297 299 299 301 305 307 308 312 310 310 312 315 317 320 320 321 320 326 327 326 322 324 325 326 330 333 333 334 332 329 325 324 324 324 323 321 319 316
284 288 287 288 288 288 289 285 286 292 291 295 297 300 301 304 305 307 311 311 311 313 314 316 319 319 320 320 321 327 324 327 324 324 324 325 331 333 332 331 328 325 323 321 322 322 321 320 318
290 287 288 291 289 280 285 284 283 287 291 295 298 302 304 303 307 311 311 311 312 312 312 312 312 313 316 319 319 326 325 324 322 323 324 326 327 330 329 330 327 326 325 322 322 322 320 320 319
288 284 280 279 279 277 287 284 286 292 296 297 298 301 305 306 307 308 309 309 309 309 309 310 311 310 311 313 315 317 325 324 323 324 324 324 325 327 329 329 326 324 323 322 322 320 320 319 318
286 287 279 274 275 278 287 281 285 294 297 299 301 305 305 305 308 309 308 307 307 308 308 307 308 308 309 311 313 314 316 326 325 326 327 325 326 328 329 328 326 325 323 322 322 320 320 319 318
287 284 289 284 286 281 283 286 292 296 298 301 303 303 302 306 307 306 307 307 306 306 307 306 305 306 306 306 308 309 314 322 326 326 327 327 329 328 328 327 325 324 323 321 321 320 319 318 317
290 291 283 286 278 278 284 284 286 293 297 301 301 303 305 306 306 306 305 306 307 307 305 305 303 303 303 303 303 306 309 313 326 324 323 326 327 327 327 326 325 323 322 321 320 319 318 317 317
288 286 289 288 286 279 279 283 296 296 298 300 302 303 303 302 302 302 303 303 303 303 303 302 301 300 300 301 300 302 303 311 323 322 322 324 326 325 326 324 322 321 321 320 319 318 317 316 316
293 289 289 282 282 284 283 283 299 300 302 303 302 302 301 300 300 300 300 299 299 299 299 298 298 297 298 298 298 301 303 319 321 321 322 325 324 324 323 321 321 320 319 319 318 316 316 315 315

GFSSGP_sfc_thetae_120.txt.gz
Theta_e
317 314 310 307 293 288 284 289 294 297 297 302 306 307 309 309 311 306 336 340 343 344 346 348 348 350 352 353 352 352 353 354 353 353 352 353 353 353 354 354 354 355 355 353 352 352 351 350 349
312 313 305 299 289 283 286 291 295 299 301 305 307 308 311 314 323 331 332 340 342 344 346 346 347 349 350 351 352 352 354 353 353 353 353 353 353 352 353 353 353 354 355 353 352 351 350 349 348
310 312 298 294 287 285 286 293 297 300 304 305 302 306 311 316 330 331 336 341 342 343 345 346 346 347 349 350 351 352 352 352 352 352 353 354 353 353 352 350 351 352 354 354 352 351 348 346 345
304 308 303 291 287 290 292 295 299 300 302 304 303 303 314 327 330 335 339 339 340 341 343 343 343 346 349 351 351 352 351 350 350 351 352 353 353 352 351 349 350 352 353 354 352 350 347 343 343
304 302 293 287 289 292 296 298 299 300 300 304 304 301 311 325 334 336 335 339 338 339 341 342 342 346 349 351 352 350 349 349 349 350 351 352 352 351 349 348 350 350 351 351 349 347 344 342 342
301 299 287 287 292 295 297 301 301 301 303 305 304 307 311 327 334 334 335 337 339 337 340 342 344 346 347 349 349 347 345 347 347 348 350 350 350 349 348 347 348 347 348 348 347 344 343 342 341
298 293 289 289 290 293 298 301 300 302 303 303 307 302 314 326 332 334 335 339 337 337 339 339 341 345 345 344 344 343 344 345 346 346 346 347 345 345 346 346 346 346 346 345 344 342 341 341 340
301 296 291 292 294 293 301 302 302 302 300 306 306 303 312 321 328 337 339 338 336 336 337 337 337 340 343 344 342 342 342 343 343 344 344 343 342 343 344 343 344 344 344 343 342 341 340 340 338
298 290 293 294 295 298 303 301 305 307 302 303 306 304 317 325 334 338 338 337 335 336 335 337 337 336 335 340 344 342 343 342 342 343 343 341 341 341 343 342 342 343 341 341 341 339 338 336 336
294 291 294 299 301 301 303 303 302 301 301 301 312 319 322 328 332 333 333 334 335 334 334 336 336 336 335 342 342 342 344 344 342 342 341 341 338 337 341 341 339 341 339 339 338 337 336 335 331
291 292 298 301 301 303 302 302 305 299 300 302 306 316 323 326 328 330 332 335 336 337 336 337 336 336 336 337 337 339 340 339 340 340 337 338 339 338 337 335 337 336 338 336 335 333 332 331 328
288 293 296 298 301 302 300 300 301 299 302 306 304 317 322 323 325 327 329 331 334 337 338 338 337 337 337 337 336 336 337 337 338 341 338 337 338 336 334 333 332 332 331 331 330 329 328 328 327
293 294 295 297 299 300 302 301 301 302 305 308 307 310 309 321 324 327 330 331 333 335 338 339 338 338 338 337 336 336 336 336 336 337 338 338 337 336 334 333 332 331 329 330 328 327 327 327 327
292 293 295 297 296 298 298 299 301 303 306 306 306 304 305 307 311 317 324 329 331 334 335 339 339 339 339 338 338 336 337 336 336 336 338 338 337 336 333 332 332 331 330 329 329 327 326 326 327
292 287 289 293 297 297 298 295 296 303 305 304 304 303 303 305 307 309 315 323 331 333 335 337 338 340 339 337 338 337 338 338 337 337 337 337 337 336 334 332 331 332 332 328 328 325 325 326 326
287 287 282 289 293 297 296 290 298 303 303 303 302 302 303 304 306 306 306 307 319 333 332 333 339 339 339 338 337 336 338 338 338 337 338 337 336 336 334 333 331 331 331 329 328 327 325 325 325
284 279 282 285 291 293 294 292 298 301 303 303 303 301 302 302 304 305 306 306 307 315 331 331 335 337 338 337 337 336 337 337 337 338 337 338 337 336 335 333 331 330 329 328 328 326 326 325 325
279 279 282 282 286 290 291 292 298 300 301 302 303 301 301 303 304 306 306 307 307 306 318 330 333 336 338 338 336 334 336 336 336 337 337 336 338 336 335 333 331 330 327 324 326 325 320 326 327
285 282 281 284 288 287 288 291 295 298 298 300 301 300 301 303 307 306 307 308 306 305 308 328 330 334 337 336 334 331 332 332 333 335 337 336 336 336 334 333 333 333 329 326 325 325 325 324 326
283 282 282 285 288 287 288 289 294 297 298 300 300 298 301 300 304 306 307 304 306 309 311 326 331 333 336 336 336 333 331 330 333 333 334 336 334 335 335 333 331 333 329 325 325 326 323 322 325
283 281 281 282 285 287 290 289 292 297 298 298 299 299 300 300 302 305 307 306 310 311 317 329 334 335 336 335 331 328 328 326 326 325 330 333 334 334 334 333 332 331 330 328 327 326 324 320 323
279 285 285 284 282 277 290 280 287 293 296 296 297 296 297 300 303 305 306 307 310 310 315 318 321 322 324 327 328 324 327 327 326 328 329 330 332 332 332 331 329 330 329 328 326 325 324 322 319
283 287 284 285 282 281 284 284 287 290 291 296 295 296 297 299 303 309 309 309 309 309 309 311 312 313 317 318 320 326 325 326 323 323 326 328 330 332 333 331 331 329 327 326 324 323 322 322 319
291 286 286 285 283 275 282 284 283 286 292 294 295 297 298 306 309 309 309 308 306 307 307 308 308 308 311 313 314 317 320 323 322 322 323 323 326 331 331 331 329 329 327 323 323 323 322 321 320
289 283 275 274 275 277 286 285 287 290 292 294 296 298 303 307 307 306 305 305 305 304 305 306 306 306 307 307 307 309 310 313 321 323 325 325 324 322 326 328 328 327 326 324 323 322 321 320 319
287 284 276 271 275 277 286 280 284 292 296 296 298 303 306 305 305 304 304 304 304 304 303 303 303 303 304 304 303 304 306 308 313 323 324 325 325 326 328 327 328 327 325 324 323 322 321 321 320
285 280 286 283 285 279 280 283 289 296 296 296 301 302 302 302 302 302 303 303 302 301 301 301 301 301 301 301 301 301 302 304 308 312 325 326 326 325 327 328 327 325 324 323 322 321 320 319 319
289 290 282 284 276 275 280 281 285 293 295 298 297 297 297 298 298 298 298 299 300 300 299 299 299 298 298 298 298 299 299 301 304 308 313 325 326 325 326 327 327 324 323 322 321 320 320 318 318
287 285 286 287 283 278 278 284 296 297 297 296 296 296 296 296 296 295 296 297 297 297 296 296 295 295 295 295 296 296 297 299 303 305 310 323 325 326 325 327 326 324 322 321 320 319 318 318 317
292 289 288 280 281 284 282 282 297 297 298 297 296 296 296 295 294 294 293 294 293 293 293 292 293 293 294 294 295 295 296 298 301 305 315 323 324 324 325 327 325 323 322 321 319 318 317 317 315

GFSSGP_sfc_thetae_126.txt.gz
Theta_e
312 308 307 302 290 287 282 285 288 291 292 296 299 300 303 308 310 305 330 336 339 341 346 348 349 350 351 351 351 351 353 353 354 353 353 353 353 354 354 354 353 353 353 352 352 351 351 350 350
308 308 302 296 284 279 281 287 290 291 296 299 301 304 307 309 319 328 330 338 339 343 345 347 348 349 350 350 351 351 353 353 352 353 353 353 354 354 354 353 352 353 353 352 352 351 350 349 348
307 307 296 292 282 281 281 287 291 295 298 297 298 301 308 312 325 330 334 340 340 342 345 346 347 348 350 350 350 351 351 350 351 352 353 354 354 354 354 352 351 352 353 351 350 349 348 347 345
302 301 297 288 285 289 286 290 293 296 298 298 299 297 303 323 327 333 339 341 340 341 344 344 345 347 349 350 350 350 349 349 349 350 352 353 353 353 352 350 351 352 352 351 349 347 346 344 343
304 298 286 285 287 290 292 294 294 296 296 298 298 297 300 319 334 337 338 340 338 339 341 343 343 346 348 350 351 350 348 348 348 349 350 351 352 352 350 349 350 351 351 350 349 346 344 342 342
296 297 287 283 286 292 295 297 298 297 298 301 299 298 304 325 331 334 337 336 338 338 339 341 344 345 347 348 348 347 346 346 347 348 349 350 349 348 348 347 348 349 349 348 346 343 342 341 341
295 292 287 286 288 292 295 298 297 298 298 298 303 298 305 323 330 332 332 332 334 336 338 338 341 343 343 344 344 343 343 344 345 346 346 346 345 344 346 346 347 347 346 345 343 342 340 340 339
298 294 285 289 289 290 299 299 299 298 297 302 302 299 302 318 329 332 330 329 330 333 334 337 339 341 343 344 341 341 342 342 343 344 343 342 342 342 343 344 345 345 345 344 342 340 339 339 336
298 289 285 288 291 293 301 299 302 303 300 301 302 301 310 324 332 328 326 325 331 333 335 338 339 340 342 343 343 341 342 342 341 342 341 339 342 341 341 341 342 343 343 342 341 339 337 336 334
290 284 286 294 296 297 300 300 301 299 301 300 303 306 313 329 327 325 324 324 326 329 332 336 337 338 339 341 343 342 344 344 344 343 341 340 338 339 340 340 340 341 340 340 339 338 336 334 332
285 284 288 291 295 297 295 297 300 297 297 300 301 303 312 326 325 323 323 323 325 328 331 334 335 337 338 339 340 340 342 342 341 342 342 341 336 337 338 335 338 337 338 336 335 334 332 330 331
285 288 288 289 291 290 289 293 293 294 296 303 303 304 308 322 326 324 322 322 321 326 329 333 334 334 336 338 338 338 338 339 339 339 339 339 339 336 334 335 333 333 333 332 331 329 329 328 327
285 286 289 290 290 289 291 289 291 293 298 301 304 304 303 314 324 328 326 324 324 323 327 331 333 333 335 336 337 337 337 337 339 339 337 339 337 337 335 332 332 332 331 330 328 327 326 326 325
288 288 289 289 289 289 288 289 290 293 298 298 300 301 302 303 316 325 328 326 328 326 326 330 331 333 334 334 335 335 336 336 336 336 338 337 338 337 336 332 331 329 330 328 328 327 325 324 325
289 285 287 287 286 286 289 284 286 293 296 296 298 299 301 302 307 318 327 328 331 332 329 329 331 331 332 332 333 334 334 335 333 334 337 337 337 336 335 333 330 329 327 327 326 324 323 323 323
285 283 278 283 286 287 284 281 287 292 292 293 295 298 300 301 303 311 324 328 330 333 332 331 332 331 331 332 331 331 332 333 332 333 335 335 335 335 332 332 331 327 326 326 325 323 321 321 322
280 275 277 281 285 285 283 281 286 290 291 291 292 294 298 301 302 303 317 325 327 332 333 333 332 330 331 331 331 330 330 330 330 330 332 334 335 332 331 330 328 328 327 325 325 322 322 323 324
275 276 276 277 281 285 283 283 287 290 289 289 290 292 294 298 302 305 303 314 325 328 331 334 335 333 331 331 331 331 331 332 332 331 332 332 334 334 331 330 328 329 329 327 324 325 324 325 325
282 280 278 282 286 284 283 284 286 289 289 289 289 290 293 295 302 305 305 305 311 324 328 330 334 335 333 331 330 330 329 331 332 333 333 332 333 333 333 332 328 329 328 328 328 327 324 324 326
282 279 279 283 286 285 283 283 287 288 288 289 290 290 291 294 298 304 305 302 303 312 325 328 331 334 334 334 332 329 331 332 332 334 333 333 333 333 333 333 330 329 328 327 327 327 323 325 326
282 280 281 281 284 286 284 282 285 288 289 290 291 292 292 294 296 302 303 303 302 301 308 322 328 331 334 335 331 325 326 328 329 331 332 333 333 333 333 333 331 330 330 328 327 328 326 322 325
278 285 285 283 281 278 282 273 281 284 284 287 289 290 293 296 298 302 303 305 307 309 308 317 322 324 327 330 330 326 328 326 327 330 332 334 334 334 334 333 332 331 331 327 327 328 328 325 321
281 287 286 286 283 279 279 275 278 283 282 286 289 293 295 297 298 303 304 304 304 306 307 310 311 312 317 322 326 326 322 324 322 325 327 327 331 332 333 332 331 331 332 330 327 327 327 326 324
289 287 286 284 279 273 278 275 276 279 283 290 294 298 299 300 301 301 302 303 301 303 303 303 304 305 307 310 312 315 316 317 322 323 320 321 326 330 331 332 332 332 332 331 328 328 328 326 325
286 281 273 271 270 273 282 278 278 285 290 291 294 297 297 297 297 296 296 296 297 298 300 300 301 301 302 303 305 305 306 310 312 317 323 323 324 326 329 330 331 331 330 329 329 327 327 326 325
285 284 276 267 272 274 283 277 282 295 298 297 297 296 295 294 294 293 293 294 295 296 297 298 298 297 299 301 301 300 301 303 305 307 310 316 322 324 326 329 330 331 330 328 327 327 326 325 325
286 283 286 280 281 276 279 285 292 294 293 294 293 292 292 293 293 293 293 293 293 293 293 294 295 296 296 297 297 297 298 298 298 299 302 305 309 316 324 324 328 329 329 326 325 325 324 324 324
289 290 280 280 272 274 279 280 279 288 288 289 289 289 290 292 293 292 292 292 292 292 292 293 293 293 293 294 295 295 295 296 296 297 298 301 304 308 311 322 324 327 327 326 325 324 324 322 322
285 285 286 287 283 278 276 280 285 287 290 288 288 290 289 289 290 290 291 291 292 292 292 291 290 290 290 291 292 293 293 294 295 296 297 299 302 304 308 311 321 324 325 325 323 323 322 321 321
289 287 286 281 280 282 281 278 287 287 287 288 289 290 290 289 289 289 288 289 288 288 289 289 289 289 289 290 291 291 293 293 293 294 295 297 299 302 305 312 314 321 323 324 322 321 321 320 319

GFSSGP_sfc_thetae_129.txt.gz
Theta_e
316 313 314 309 297 296 291 292 295 296 298 303 304 304 305 311 313 307 338 340 344 346 349 352 349 350 351 351 351 352 354 355 355 354 353 353 354 354 354 354 354 354 354 352 352 352 351 351 350
313 312 311 305 293 289 291 294 295 298 301 304 305 307 308 312 322 329 335 340 344 348 349 351 348 349 350 350 351 352 354 355 354 354 354 354 354 354 354 353 352 353 354 353 351 351 351 350 349
313 310 305 300 292 290 291 293 297 299 302 302 304 306 307 315 326 334 340 343 345 347 349 351 347 348 349 350 350 351 352 352 352 352 354 354 354 354 353 352 351 352 353 353 351 350 349 347 345
310 309 304 295 292 294 292 296 298 300 303 303 304 303 309 321 328 338 343 343 345 347 349 347 345 347 349 350 350 351 350 349 350 351 353 354 354 354 352 351 351 352 352 352 350 348 347 344 343
312 304 295 293 293 296 298 300 301 301 301 302 305 303 306 318 339 341 343 343 344 347 349 350 343 346 349 350 351 349 348 348 349 350 351 352 353 352 351 350 350 350 351 350 349 346 344 343 341
301 305 293 290 292 297 300 301 301 301 302 304 304 304 308 329 334 340 343 343 346 346 349 350 346 346 347 348 348 346 346 346 347 348 349 351 351 350 349 349 349 349 348 347 345 344 343 342 340
299 300 293 293 294 297 301 303 302 303 304 304 306 304 310 322 332 339 340 343 344 346 347 350 350 348 344 344 344 343 343 344 345 346 346 347 346 346 347 348 348 348 347 345 343 342 341 341 339
305 302 294 295 294 296 303 304 305 304 304 308 308 304 306 314 333 337 339 340 342 343 346 347 348 349 350 350 341 341 341 342 343 344 343 342 342 343 344 344 346 346 345 343 342 340 339 339 338
305 295 292 294 295 298 304 302 307 309 306 308 309 309 311 324 333 334 335 336 337 338 342 344 346 348 349 347 347 342 342 341 341 343 342 340 349 349 349 344 343 344 343 341 340 339 338 336 335
296 292 292 298 300 298 299 299 300 301 303 303 306 310 313 328 331 330 331 332 333 335 338 341 343 345 346 343 345 348 348 348 348 349 349 350 349 349 347 345 341 342 340 340 339 338 336 337 343
292 290 293 294 296 293 293 294 298 296 296 303 303 305 309 311 315 327 330 332 332 335 337 338 341 344 343 342 343 344 346 346 347 348 348 349 348 348 347 349 347 349 342 344 340 340 341 342 342
290 292 292 293 293 292 291 294 293 295 296 301 301 303 304 306 309 317 327 330 329 331 335 338 340 341 342 342 341 342 341 343 343 344 345 345 345 346 347 346 348 347 346 345 344 343 342 341 339
289 290 291 292 293 292 293 291 292 293 297 299 299 301 302 305 307 312 323 329 330 328 333 335 337 338 338 340 340 340 340 341 341 342 342 344 342 342 343 345 346 346 345 344 343 341 340 339 339
290 291 291 292 292 292 290 291 292 294 297 297 298 299 301 303 306 309 313 325 330 329 330 335 334 335 336 337 340 339 339 340 341 341 341 341 341 342 340 342 344 345 345 344 342 340 338 338 338
291 287 289 290 290 290 292 288 288 294 296 295 295 297 298 301 304 306 311 319 329 332 331 333 334 333 334 336 339 339 338 338 338 339 341 340 341 341 340 338 341 344 344 344 342 341 339 337 337
288 287 283 288 290 290 290 284 292 293 294 294 296 297 297 298 300 304 310 312 322 332 332 333 335 334 333 334 336 338 339 338 338 337 338 340 340 341 339 336 337 343 343 342 340 339 337 336 335
285 281 282 285 290 289 288 286 291 294 294 293 295 295 297 298 300 301 304 311 315 328 335 332 336 336 336 336 335 335 336 335 336 336 336 338 338 338 337 335 336 341 341 339 339 336 337 333 332
280 281 283 282 287 288 286 286 291 293 293 293 294 295 296 296 298 301 302 306 312 325 337 336 334 335 337 337 337 336 333 333 334 333 335 336 335 336 335 339 337 340 338 336 336 335 335 334 334
284 283 282 285 289 287 286 287 290 293 293 293 293 294 295 296 299 301 303 306 311 320 334 337 335 335 335 335 334 334 331 333 334 337 339 338 337 334 336 339 339 338 334 334 333 335 333 330 330
284 282 282 286 290 289 287 286 290 292 292 294 294 295 296 296 298 300 301 304 309 313 330 336 337 336 334 333 335 337 336 336 336 337 338 338 339 338 338 337 336 335 333 333 332 332 329 330 330
285 283 284 283 287 290 287 285 289 292 293 293 294 296 296 296 297 298 300 302 307 312 320 332 337 337 337 336 336 336 337 336 335 334 334 336 338 339 340 338 336 335 335 332 331 332 333 327 327
282 287 286 285 284 280 288 276 285 290 290 292 292 293 294 295 296 298 299 300 308 311 316 330 335 338 339 339 337 335 332 330 333 334 334 335 338 338 338 339 337 336 335 334 332 333 334 333 325
285 288 287 287 284 283 283 279 285 291 289 290 293 297 301 303 298 297 298 301 311 314 315 324 330 334 337 339 338 336 336 338 338 336 333 335 335 334 333 332 332 334 334 335 334 332 332 335 333
291 288 289 287 283 275 281 281 283 286 287 290 297 296 297 300 300 303 305 306 306 307 310 313 314 311 314 322 330 335 333 332 331 333 330 332 333 326 324 324 325 332 333 333 334 334 333 333 335
289 286 279 277 276 276 283 282 285 290 291 290 292 290 292 293 294 295 296 298 300 301 303 306 307 305 305 305 305 308 312 317 324 329 329 330 328 328 325 326 328 331 333 334 334 332 332 332 331
286 285 279 273 275 278 285 279 285 290 291 290 291 289 291 291 292 292 293 294 296 298 298 299 301 300 301 302 303 304 304 307 308 312 314 322 327 329 331 330 331 332 333 333 332 331 332 332 332
288 283 289 281 282 278 282 285 291 289 288 288 287 288 287 290 291 291 292 292 294 294 294 295 296 297 298 298 299 300 302 303 304 306 307 310 310 312 316 327 330 329 331 331 330 329 329 330 330
290 292 283 283 275 274 281 281 278 282 283 286 285 285 286 288 289 291 291 291 292 292 293 293 294 294 295 296 296 297 299 299 301 302 303 305 306 307 310 312 316 325 328 330 329 328 328 327 328
287 285 286 285 283 278 277 277 284 283 284 283 285 284 285 286 287 288 289 291 291 292 292 291 292 292 293 294 294 296 295 296 298 298 299 300 303 305 306 309 312 315 321 326 327 326 326 324 326
288 286 286 281 281 284 282 277 287 286 286 285 285 285 285 286 286 287 287 288 288 289 290 290 290 290 291 293 293 293 294 295 295 296 297 299 300 302 304 306 308 312 316 321 324 324 324 323 322

GFSSGP_sfc_thetae_132.txt.gz
Theta_e
318 317 321 316 303 302 299 299 303 301 304 309 309 307 308 312 311 310 341 345 346 349 354 354 349 350 351 353 354 354 355 355 355 354 354 354 354 354 354 354 354 355 355 353 352 353 352 351 351
317 315 317 311 299 297 301 302 300 303 305 308 309 309 311 312 320 326 334 344 347 351 354 354 348 349 351 351 353 354 355 355 354 354 354 354 354 354 354 354 353 354 354 353 352 352 352 350 350
317 316 310 306 301 298 300 300 304 304 306 307 307 310 310 312 318 325 345 346 348 351 353 354 347 348 350 350 352 353 354 353 353 353 355 355 355 354 354 353 352 353 354 354 352 352 350 348 346
315 313 310 301 300 303 301 303 304 305 307 308 308 306 312 324 329 337 344 346 348 351 352 348 345 347 349 350 351 352 352 351 351 352 354 355 355 354 353 351 351 353 354 354 352 350 348 345 344
316 311 303 301 302 305 306 307 307 305 307 307 309 306 310 325 330 337 347 345 348 351 353 354 343 346 348 350 351 350 350 349 350 351 352 353 353 353 351 350 351 351 352 352 350 348 345 344 342
307 310 301 300 302 305 308 309 307 307 308 309 308 309 311 326 328 336 347 347 350 352 354 354 347 346 347 349 348 347 347 348 348 349 350 352 351 350 350 349 350 349 349 348 346 344 344 342 341
305 304 301 302 302 304 307 310 308 308 309 309 311 307 314 319 326 334 342 350 351 354 355 356 354 350 344 344 344 343 344 345 346 347 348 348 347 347 348 348 349 348 347 346 344 343 341 341 340
309 306 301 302 301 302 309 309 310 309 308 313 313 309 310 318 323 333 339 344 349 351 353 354 354 354 353 353 342 341 342 343 344 345 345 344 344 345 346 346 347 347 345 344 343 341 341 339 337
309 299 297 300 301 302 306 305 309 311 309 311 312 313 316 319 325 327 330 336 345 347 350 353 353 353 354 353 349 342 342 342 342 344 343 342 351 352 351 346 344 345 343 342 341 340 339 337 336
301 297 297 301 303 301 303 303 304 302 303 304 306 311 316 317 317 317 320 325 336 344 347 349 351 351 352 349 352 351 349 349 350 350 352 350 351 351 349 346 342 343 341 340 340 338 337 337 344
299 295 299 300 301 300 300 300 302 299 298 302 302 308 310 310 311 312 315 320 327 341 344 346 349 351 350 348 349 348 349 348 349 350 351 350 350 351 350 350 349 349 342 344 341 342 343 343 343
295 297 298 298 299 298 297 299 297 298 299 303 303 305 306 305 306 308 311 314 323 333 342 343 346 348 349 346 347 347 348 348 348 349 353 351 349 349 349 348 347 347 346 344 342 341 342 344 343
294 295 296 297 297 297 298 296 296 297 301 303 302 302 303 304 306 309 312 314 317 325 338 342 344 345 347 347 345 347 347 347 348 349 352 350 348 348 348 348 347 346 346 344 344 343 342 343 342
295 295 296 297 297 297 295 296 297 298 301 300 301 302 303 304 305 307 309 312 316 323 331 340 341 344 344 343 346 346 347 347 347 348 349 351 349 349 348 347 347 347 347 345 345 344 342 341 341
296 292 295 295 295 295 297 293 295 299 299 299 300 302 303 304 305 305 308 311 313 318 330 334 340 343 342 341 345 345 345 343 344 345 346 347 349 349 348 346 347 345 347 346 345 343 343 341 340
293 293 290 293 294 295 294 290 297 300 298 298 300 302 303 304 305 307 308 308 311 314 318 331 336 340 341 340 342 343 343 343 342 345 346 346 345 348 346 344 344 347 347 345 344 342 340 339 338
291 288 289 290 294 294 293 291 297 301 300 299 300 301 302 303 305 307 308 309 309 311 315 322 336 338 339 340 341 343 344 343 344 343 343 344 344 345 344 343 343 348 344 342 342 341 341 338 337
287 287 289 289 293 294 293 293 297 300 300 300 300 301 302 302 303 306 308 309 309 310 313 318 331 338 340 339 340 340 341 342 343 343 344 345 341 343 341 342 340 344 344 342 340 339 341 339 338
289 288 288 292 295 293 292 293 296 300 300 299 300 301 302 303 305 306 307 309 309 310 311 313 323 338 340 338 337 336 335 335 338 341 341 342 340 341 340 340 341 344 342 341 339 339 337 337 338
290 288 289 292 294 293 293 293 297 299 299 300 300 301 302 303 303 305 306 307 308 309 310 312 317 335 338 339 339 339 338 336 337 338 340 341 338 339 338 341 342 342 341 342 337 338 335 335 337
290 288 289 288 292 295 293 291 294 298 301 302 302 304 306 306 305 306 304 306 307 308 310 310 314 330 337 339 340 338 339 337 335 336 337 340 342 341 337 340 342 342 340 338 336 336 335 330 333
286 292 291 290 289 286 293 283 292 296 297 297 297 297 296 300 305 307 309 307 306 306 309 310 314 325 336 339 337 335 334 331 333 336 337 338 341 341 342 343 341 341 339 337 336 336 337 337 330
289 293 292 291 290 287 288 285 290 295 288 289 293 291 291 294 300 305 308 310 309 306 307 312 314 321 334 339 338 337 334 335 335 336 337 339 339 341 340 341 341 337 338 336 333 332 334 339 337
294 292 293 292 288 281 287 285 289 285 286 287 289 290 289 291 294 297 302 310 311 314 315 316 316 320 331 337 338 338 336 336 338 337 338 338 338 337 338 335 332 333 327 327 330 334 333 333 336
293 291 285 283 282 281 288 287 284 289 288 289 287 289 288 289 291 292 294 296 299 303 309 313 311 307 311 314 317 331 339 337 337 337 334 333 331 329 329 333 329 325 326 325 326 330 332 332 332
291 289 284 276 280 283 290 284 287 290 291 290 289 289 288 287 288 289 291 293 295 295 299 301 302 301 303 305 306 309 313 320 319 323 329 332 332 335 337 335 334 333 329 332 332 332 332 334 333
289 289 292 285 287 282 287 289 292 291 289 289 287 287 285 286 286 287 289 291 293 294 294 296 298 298 300 303 305 307 308 309 313 312 317 324 328 329 331 332 335 335 333 334 334 333 332 332 332
293 295 286 287 278 277 284 282 281 283 285 286 284 284 285 285 285 286 287 288 291 293 294 296 297 297 298 300 302 304 306 307 308 310 312 313 317 318 318 322 326 323 329 332 333 332 332 330 331
290 289 288 288 286 281 280 279 285 284 285 284 285 284 285 284 284 285 285 286 289 291 292 293 293 293 296 298 300 302 302 304 305 306 308 308 309 310 311 313 316 317 321 326 329 329 329 328 328
292 288 289 283 281 286 284 280 288 287 287 286 285 284 285 286 284 284 285 285 286 287 290 290 292 292 295 297 298 299 300 300 301 302 302 302 306 308 307 310 311 313 315 318 320 325 328 327 326

GFSSGP_sfc_thetae_135.txt.gz
Theta_e
323 321 319 316 306 304 302 303 306 304 306 311 311 311 311 313 312 311 337 347 347 346 357 353 349 351 353 354 354 354 354 355 355 354 354 354 355 355 355 355 355 356 355 352 353 354 352 351 351
321 317 318 314 301 300 303 306 303 306 308 310 310 312 312 314 320 323 332 347 346 348 356 354 348 350 352 353 354 354 355 355 354 354 354 354 355 354 355 354 354 355 355 353 352 352 351 350 350
321 318 312 308 305 301 303 305 306 306 309 308 309 312 311 314 323 330 339 344 346 349 355 354 347 348 351 352 353 354 354 353 353 353 354 355 355 355 354 353 352 354 355 353 352 352 350 349 347
317 316 313 304 303 307 306 306 306 308 310 310 310 308 314 325 325 332 343 349 347 350 354 347 345 347 350 352 353 353 353 351 352 352 354 355 355 355 353 352 352 354 354 354 352 350 348 346 344
317 315 306 304 305 308 311 310 311 308 310 310 311 309 311 323 330 334 341 347 347 351 354 354 344 346 349 352 353 352 351 350 351 352 353 353 354 353 351 350 351 353 354 353 351 348 346 344 343
311 312 304 302 305 309 312 312 312 309 312 312 312 312 313 324 324 330 339 348 350 352 357 357 347 346 347 349 350 349 348 349 349 350 351 352 352 351 350 350 350 351 351 349 348 345 344 343 342
308 307 303 304 305 307 310 314 310 311 311 312 314 309 315 320 324 328 336 344 351 354 356 356 353 349 345 345 345 344 345 346 347 348 348 349 348 347 348 349 349 349 348 346 345 343 342 342 341
310 308 302 304 303 305 311 312 313 311 310 317 316 310 312 320 323 327 330 339 348 353 354 355 354 351 350 350 342 342 343 344 345 346 346 345 345 346 346 347 347 347 346 344 344 342 340 340 338
309 300 299 301 302 305 310 307 311 312 308 311 313 314 317 318 320 324 324 328 341 349 352 355 353 352 351 351 348 343 343 343 343 346 344 343 351 351 351 346 345 346 344 342 342 341 339 337 336
302 299 300 304 303 303 305 305 305 304 304 304 307 311 313 318 317 315 316 319 324 337 348 351 353 352 352 349 351 349 348 350 351 351 352 350 350 349 348 345 343 344 342 341 340 340 338 336 341
301 298 302 302 303 303 302 301 304 302 300 304 304 306 308 310 311 311 311 314 319 326 342 349 351 355 352 349 349 347 347 347 349 350 352 350 349 352 349 352 349 348 342 343 341 341 342 342 341
298 301 301 302 302 301 299 301 299 301 302 305 306 306 306 306 307 308 309 311 315 319 329 347 349 351 355 348 346 347 347 349 348 348 356 351 349 350 351 348 348 347 344 342 342 341 341 342 343
298 299 300 301 300 300 301 299 299 300 304 306 305 305 305 306 307 309 311 312 313 316 321 338 349 352 350 352 346 347 348 347 349 350 354 352 349 351 348 349 347 346 344 343 343 341 341 340 341
300 299 299 300 300 301 298 299 300 301 305 304 304 304 306 306 307 308 309 310 312 314 318 329 343 351 348 349 352 349 349 349 349 351 353 355 353 352 349 348 347 347 346 344 344 341 341 340 340
299 295 299 300 299 298 300 295 298 302 303 302 303 305 306 307 308 309 310 310 311 312 316 322 340 349 349 349 349 347 347 347 348 347 355 355 353 353 348 347 345 347 349 347 345 346 342 340 338
296 298 293 298 297 299 297 292 300 304 303 302 303 305 306 307 308 309 311 311 312 312 313 317 323 342 348 348 347 345 345 347 346 348 350 352 353 353 349 348 348 350 347 346 344 341 341 340 337
297 291 293 295 299 297 296 294 300 304 303 302 304 305 305 306 308 310 311 311 312 312 313 314 321 334 344 345 345 347 347 347 346 345 346 348 346 353 351 347 349 351 346 346 343 341 341 339 337
291 291 293 292 297 297 296 296 300 302 303 303 303 305 306 307 309 311 311 312 311 312 314 315 317 322 344 345 344 344 345 346 345 346 346 348 344 346 351 347 348 348 346 344 345 344 343 339 338
292 291 290 294 298 295 295 296 298 302 302 304 304 305 305 305 307 311 314 314 311 312 312 314 316 321 331 341 340 341 341 343 342 344 346 347 345 343 345 346 346 343 346 345 342 341 340 339 340
292 291 291 295 296 295 295 295 300 302 302 301 301 300 300 301 302 304 308 312 315 316 314 314 314 317 318 340 341 341 342 343 343 344 347 346 348 343 341 341 344 340 342 345 345 339 335 337 338
293 291 291 290 294 296 296 294 296 302 301 300 300 300 300 298 297 300 303 307 312 316 318 311 312 314 317 322 341 339 341 342 340 340 341 344 346 341 341 340 345 344 344 342 344 338 335 333 337
289 294 293 292 291 287 296 285 293 298 296 296 297 297 297 296 295 296 298 301 306 311 319 315 312 312 315 317 335 336 336 334 336 337 339 340 343 341 340 339 344 346 344 342 341 337 337 336 331
290 295 294 294 292 292 292 289 293 295 291 293 293 292 293 294 293 292 292 296 303 306 311 317 313 311 314 316 330 338 337 338 338 337 338 341 344 345 342 340 343 346 344 337 336 335 335 335 332
297 295 295 296 293 286 291 289 289 288 289 291 291 290 290 292 293 292 291 293 296 301 304 311 315 310 313 315 326 338 337 338 336 337 337 338 341 342 345 344 343 343 339 339 335 333 333 334 333
296 293 286 284 285 284 292 289 285 291 292 291 288 289 289 290 290 291 288 288 291 295 298 301 304 309 314 320 322 337 335 338 338 337 337 339 339 340 342 341 340 339 340 338 330 327 325 326 330
293 292 286 278 281 284 291 286 286 293 294 294 292 291 289 289 289 289 288 287 287 291 294 296 299 301 306 307 308 317 317 330 337 340 342 342 340 338 341 340 336 335 338 333 332 329 325 326 329
293 290 294 287 289 285 288 291 294 292 291 291 289 289 287 287 288 287 287 286 287 289 291 293 295 299 302 302 305 307 310 317 316 318 329 333 333 332 333 332 332 331 334 334 334 333 329 329 330
295 296 288 290 280 279 285 284 282 284 286 288 286 286 286 287 287 286 285 285 286 287 291 293 296 298 300 301 303 304 306 310 312 314 313 316 318 323 327 330 332 332 331 333 336 335 334 333 333
292 291 290 290 288 282 281 280 286 285 286 285 286 285 286 285 285 285 285 285 285 286 288 290 291 292 295 297 301 303 303 306 308 307 307 310 313 315 316 318 321 325 328 330 330 331 333 332 333
293 290 288 283 284 287 286 279 289 288 288 287 286 286 286 285 285 285 285 285 285 285 286 288 290 293 295 296 297 299 300 303 302 302 303 307 308 311 311 313 314 315 317 320 323 326 328 327 327